星链-4171 (STARLINK-4171 )

导读 | 豆包AI

STARLINK-4171是美国SpaceX星链计划中的一颗卫星,于2022年6月17日发射升空,属于星链低轨互联网星座组网卫星。星链星座旨在为全球提供高速低延迟宽带互联网覆盖,该卫星入轨后承担相关通信服务任务,推进星链星座全球组网进程,拓展全球卫星互联网服务覆盖范围。

基本信息
目录编号:
52878
目录名称:
STARLINK-4171
国际标识:
2022-062BA
轨道中心:
EARTH
卫星名称:
星链-4171
卫星全名:
星链-4171 (STARLINK-4171 )
卫星状态:
在轨 (已飞行1367 天)
发射日期:
2022-06-17 UTC
国别 :
美国 (US)
星等 :
--
轨道信息
数据来源 国际轨道数据 AOE轨道数据
星历时间 2026-03-14T09:17:35+0800
1天前
查看轨道信息
2026-03-09T11:00:00+0800
5天前
查看轨道信息
半长轴 6917.892km 6917.87km
偏心率 0.0001417 0.0000976
轨道倾角 53.220° 53.211°
近地点辐角 81.351° 109.604°
升交点赤经 354.529° 16.658°
平近点角 278.764° 103.212°
近地点 538.774km 539.057km
远地点 540.736km 540.409km
周期 95.438分钟 95.437分钟
每日圈数 15.088365 15.088435
详细信息
固有亮度:
5
最大亮度:
2.5
卫星平台:
Starlink v1.5
覆盖范围:
全球
运营商:
太空探索技术公司
运营商所在国:
美国
制造商(研发单位):
太空探索技术公司
制造商所在国:
美国
使用方式:
暂无
卫星简介
星链(Starlink)计划是由太空探索技术公司(SpaceX)提出的一个巨型低轨卫星互联网星座项目,计划在2019年至2024年间在太空搭建由约1.2万颗卫星组成的“星链”网络,其中1584颗将部署在地球上空550千米处的近地轨道,并从2020年开始工作。该卫星仍在工作。
2D轨道图
3D轨道图
轨道高度分析图
轨道倾角分析图
轨道综合分析图
查看轨道综合分析图